Вернуться в каталог

MIDAS 4 DEB

АктивенPO
NORAD 2371·DEBRIS·🇺🇸 United States

Запущен Oct 21, 1961 с Vandenberg Space Force Base

Loading…

Ближайшие Пролёты (ближайшие 24 часа)

TLE

УстаревшееSource: Space-Track

Эпоха: Aug 31, 2026, 08:46 UTC

1 02371U 61028F   26243.36565817 -.00000745  00000-0 -28335+0 0  9996
2 02371  95.8368 317.0087 0557125 108.4039 257.8195  8.70051063 35667

Отслеживайте MIDAS 4 DEB в реальном времени с AllMySat

Download on the App Store